Content
SEND FEEDBACK

Daily
Averages
Monthly
Summary
Canada

QUEBEC CITY, QUEBEC


Home > North America > Canada > Quebec
Elevation: 239 feet     Latitude: 46 48N     Longitude: 071 23W

WEATHER
 
SELECT A DAY
Number of Records: 192,604;   Date Range: 6/30/96 - 8/31/14
 
SHARE

PRINT THIS DATA

[ ← Previous Day ]
WEATHER ALMANAC - FEBRUARY 9, 2013
[ Next Day → ]
[ °C ]   °F
Weather ElementAverageHighLow
Temperature11.2 °F16 °F (1:00 pm)3.2 °F (11:00 pm)
Dewpoint-3.2 °F6 °F (4:00 pm)-9.4 °F (5:00 am)
Humidity49.3 %69 % (7:00 pm)32 % (1:00 pm)
Barometer29.29 in30.33 in (11:00 pm) (7:00 pm)
Wind Speed11.5 mph24.2 mph (2:00 am)
Wind Gust34.5 mph (3:00 am)
Weather ElementAverage
Visibility20.6 mi
Wind DirectionESE (118.7 °)

Weather ElementTotal
Precipitation---
Heating Degree Days55.4 (Base 65)
Averaged from 31 records on February 9, 2013
WEATHER CONDITIONS BREAKOUT
WIND DIRECTION BREAKOUT
WEATHER BY HOUR - FEBRUARY 9, 2013
[ °C ]   °F
Local TimeTemperatureDewpointHumidityBarometerVisibilityWind DirectionWind SpeedGust SpeedPrecipitationEventsConditions
12:16 AM8.6 °F0.0 °F15.0 miNE (50°)23.0 mph32.2 mphOvercast
1:00 AM9.0 °F-1.0 °F49 %30.28 inENE (60°)13.8 mph
1:00 AM8.6 °F-5.8 °F52 %30.28 in15.0 miENE (60°)18.4 mph28.8 mphOvercast
2:00 AM8.6 °F-5.8 °F52 %30.26 in15.0 miNE (50°)24.2 mph33.4 mphMostly Cloudy
3:00 AM8.6 °F-5.8 °F52 %30.23 in15.0 miENE (60°)20.7 mph34.5 mphOvercast
4:00 AM10.0 °F-4.0 °F38 %30.22 inENE (60°)16.1 mph
4:00 AM8.6 °F-7.6 °F48 %30.23 in15.0 miNE (50°)23.0 mph34.5 mphMostly Cloudy
5:00 AM8.6 °F-9.4 °F44 %30.22 in15.0 miENE (60°)20.7 mph32.2 mphOvercast
6:00 AM10.4 °F-9.4 °F41 %30.23 in15.0 miENE (60°)18.4 mph28.8 mphOvercast
7:00 AM10.0 °F-5.0 °F34 %30.24 inENE (70°)12.7 mph
7:00 AM10.4 °F-9.4 °F41 %30.25 in25.0 miENE (70°)19.6 mph27.6 mphOvercast
8:00 AM10.4 °F-5.8 °F48 %30.25 in25.0 miENE (60°)16.1 mph24.2 mphOvercast
9:00 AM10.4 °F-5.8 °F48 %30.26 in25.0 miENE (70°)17.3 mph23.0 mphOvercast
10:00 AM12.2 °F-4.0 °F48 %30.26 in25.0 miENE (70°)12.7 mph23.0 mphOvercast
11:00 AM14.0 °F-4.0 °F45 %30.27 in25.0 miENE (60°)15.0 mph21.9 mphMostly Cloudy
12:00 PM15.8 °F-4.0 °F41 %30.26 in25.0 miENE (60°)12.7 mph18.4 mphMostly Cloudy
1:00 PM16.0 °F-1.0 °F32 %30.25 inEast (80°)6.9 mph
1:00 PM15.8 °F-4.0 °F41 %30.25 in30.0 miEast (80°)8.1 mphMostly Cloudy
2:00 PM15.8 °F-2.2 °F45 %30.24 in30.0 miEast (80°)6.9 mphMostly Cloudy
3:00 PM15.8 °F-0.4 °F49 %30.25 in30.0 miESE (120°)4.6 mphMostly Cloudy
4:00 PM16.0 °F6.0 °F53 %30.26 inESE (110°)5.8 mph
4:00 PM15.8 °F3.2 °F58 %30.27 in30.0 miESE (120°)5.8 mphMostly Cloudy
5:00 PM15.8 °F3.2 °F58 %30.27 in30.0 miEast (90°)3.5 mphMostly Cloudy
6:00 PM14.0 °F3.2 °F62 %30.29 in15.0 miCalmMostly Cloudy
7:00 PM10.0 °F5.0 °F69 %30.30 inWest (270°)3.5 mph
7:00 PM10.4 °F1.4 °F67 %30.30 in15.0 miWest (260°)4.6 mphMostly Cloudy
8:00 PM10.4 °F-2.2 °F57 %30.30 in15.0 miWest (280°)4.6 mphMostly Cloudy
9:00 PM10.4 °F-5.8 °F48 %30.32 in15.0 miNW (310°)3.5 mphScattered Clouds
10:00 PM7.0 °F-4.0 °F45 %30.31 inNW (310°)3.5 mph
10:00 PM6.8 °F-7.6 °F52 %30.32 in15.0 miNW (310°)5.8 mphPartly Cloudy
11:00 PM3.2 °F-7.6 °F61 %30.33 in15.0 miWNW (290°)5.8 mphClear
Hourly data recorded from CYQB, located miles away from Quebec City, Quebec







STORIES FROM OUR PARTNERS